User: anonymous   Login
Location: Unspecified
(0.0000°N, 0.0000°E)
Time: 16:28:27
(UTC+02:00)
Language:

CZ-4B DEB - Orbit

View from above orbital plane
View from above orbital plane
View from above satellite
View from above satellite

Ground track
Ground track

The orbit data is extracted from the following two-line orbital elements,

1 33411U 08053D   15114.14111573  .00035324  00000-0  14459-2 0  9995
2 33411 097.4908 135.1875 0006467 250.0321 110.0219 15.24210751355417
Epoch (UTC): 24 April 2015 03:23:12
Eccentricity: 0.0006467
inclination: 97.4908°
perigee height: 489 km
apogee height: 497 km
right ascension of ascending node: 135.1875°
argument of perigee: 250.0321°
revolutions per day: 15.24210751
mean anomaly at epoch: 110.0219°
orbit number at epoch: 35541

The dashed part of the orbit path shows where the satellite is in the earth's shadow,  

DLR